Laredo, TX

3:10 PM CST en Diciembre 11, 2017 (GMT -0600)
Laredo International

Tiempo Historia de KLRD - Diciembre, 2017

Change the Weather History Date:

Jueves, Diciembre 7, 2017

  Actual Average Record
Temperature  
Temperatura media 39 ° F 59 ° F  
Temperatura máxima 43 ° F 69 ° F 94 ° F (1917)
Temperatura mínima 34 ° F 48 ° F 30 ° F (1984)
Degree Days  
Grados día de calefacción 26 8  
Month to date heating degree days 42 51  
Since 1 July heating degree days 111 166  
Cooling Degree Days 0 1  
Month to date cooling degree days 37 11  
Year to date cooling degree days 4871 4266  
Moisture  
Punto de rocío 37 ° F    
Average Humidity 94    
Maximum Humidity 96    
Minimum Humidity 92    
Precipitación  
Precipitación 1.07 pul 0.02 pul 1.78 pul (1931)
Month to date precipitation 1.07 0.17  
Year to date precipitation 23.34 19.49  
Presión al nivel del mar  
Presión al nivel del mar 30.37 pul    
Viento  
Velocidad del viento 12 mph (NNO)    
Velocidad máxima del viento 15 mph    
Max Gust Speed 17 mph    
Visibilidad 8 Millas    
Eventos Lluvia , Nieve    
T = Trace of Precipitation, MM = Missing Value Source: NWS Daily Summary

Daily Weather History Graph

Daily Weather History Graph

Search for Another Location

Airport or City:

Trip Planner

Search our weather history database for the weather conditions in past years. The results will help you decide how hot, cold, wet, or windy it might be!

Date:

Astronomía

Dec. 07, 2017 Salida Puesta
Hora real 7:15 AM CST 5:43 PM CST
Crepúsculo civil 6:50 AM CST 6:08 PM CST
Crepúsculo náutico 6:21 AM CST 6:37 PM CST
Crepúsculo astronómico 5:52 AM CST 7:06 PM CST
Luna 10:22 PM CST (12/7) 11:04 AM CST (12/7)
Horas de luz 11h 18m
Horas de luz
10h 27m
Gibosa menguante, 77% of the Moon is Illuminated
Dic 7
Gibosa menguante
Dic 10
Cuarto menguante
Dic 18
Nueva
Dic 26
Cuarto creciente
Ene 1
Luna llena

Hourly Weather History & Observations

Hora (CST) Temp. Vientos helados Punto de rocío Humedad Presión Visibilidad Wind Dir Velocidad del viento Velocidad de ráfagas Precip Eventos Condiciones
12:56 AM 42.1 ° F 36.6 ° F 39.9 ° F 92% 30.37 pul 10.0 mi NNE 9.2 mph - 0.00 pul   Nublado
1:56 AM 42.1 ° F 37.1 ° F 41.0 ° F 96% 30.38 pul 10.0 mi Norte 8.1 mph - 0.02 pul Lluvia Lluvia débil
2:56 AM 43.0 ° F 37.7 ° F 41.0 ° F 93% 30.36 pul 10.0 mi NNO 9.2 mph - 0.03 pul Lluvia Lluvia débil
3:56 AM 41.0 ° F 33.5 ° F 39.0 ° F 93% 30.34 pul 10.0 mi NNE 13.8 mph - 0.04 pul Lluvia Lluvia débil
4:36 AM 41.0 ° F 34.3 ° F 39.2 ° F 93% 30.31 pul 10.0 mi Norte 11.5 mph - 0.01 pul Lluvia Lluvia débil
4:56 AM 41.0 ° F 34.3 ° F 39.0 ° F 93% 30.35 pul 10.0 mi Norte 11.5 mph - 0.02 pul Lluvia Lluvia débil
5:56 AM 41.0 ° F 33.5 ° F 39.0 ° F 93% 30.33 pul 10.0 mi NNE 13.8 mph - 0.10 pul Lluvia Lluvia débil
5:59 AM 41.0 ° F 34.3 ° F 39.2 ° F 93% 30.29 pul 10.0 mi NNE 11.5 mph - 0.00 pul Lluvia Lluvia débil
6:17 AM 41.0 ° F 34.7 ° F 39.2 ° F 93% 30.32 pul 10.0 mi Norte 10.4 mph - 0.01 pul Lluvia Lluvia débil
6:56 AM 41.0 ° F 34.7 ° F 39.0 ° F 93% 30.38 pul 10.0 mi Norte 10.4 mph - 0.02 pul Lluvia Lluvia débil
7:50 AM 41.0 ° F 34.3 ° F 39.2 ° F 93% 30.37 pul 10.0 mi Norte 11.5 mph - 0.05 pul Lluvia Lluvia
7:56 AM 41.0 ° F 33.9 ° F 39.0 ° F 93% 30.40 pul 10.0 mi NNO 12.7 mph - 0.06 pul Lluvia Lluvia
8:14 AM 41.0 ° F 34.3 ° F 39.2 ° F 93% 30.37 pul 8.0 mi Norte 11.5 mph - 0.03 pul Lluvia Lluvia
8:44 AM 41.0 ° F 33.9 ° F 39.2 ° F 93% 30.35 pul 10.0 mi Norte 12.7 mph - 0.06 pul Lluvia Lluvia débil
8:56 AM 41.0 ° F 34.3 ° F 39.0 ° F 93% 30.40 pul 10.0 mi Norte 11.5 mph - 0.07 pul Lluvia Lluvia débil
9:56 AM 41.0 ° F 33.5 ° F 39.0 ° F 93% 30.44 pul 9.0 mi NNO 13.8 mph - 0.08 pul Lluvia Lluvia débil
10:56 AM 39.9 ° F 32.1 ° F 37.9 ° F 93% 30.41 pul 9.0 mi Norte 13.8 mph - 0.06 pul Lluvia Lluvia
11:56 AM 39.0 ° F 30.6 ° F 37.0 ° F 93% 30.41 pul 10.0 mi NNO 15.0 mph - 0.08 pul Lluvia Lluvia
12:56 PM 37.0 ° F 28.5 ° F 36.0 ° F 96% 30.39 pul 9.0 mi NO 13.8 mph - 0.06 pul Lluvia Lluvia débil
1:51 PM 35.6 ° F 27.5 ° F 33.8 ° F 93% 30.33 pul 10.0 mi NO 11.5 mph - 0.09 pul Lluvia Lluvia
1:56 PM 35.1 ° F 26.9 ° F 34.0 ° F 96% 30.36 pul 10.0 mi NNO 11.5 mph - 0.10 pul Lluvia Lluvia
2:52 PM 33.8 ° F 25.8 ° F 33.8 ° F 100% 30.31 pul 2.5 mi NO 10.4 mph - 0.06 pul Nieve Débil nevada
2:56 PM 34.0 ° F 25.5 ° F 33.1 ° F 96% 30.34 pul 2.5 mi NO 11.5 mph - 0.07 pul Nieve Débil nevada
3:17 PM 33.8 ° F 25.3 ° F 33.8 ° F 100% 30.30 pul 5.0 mi NO 11.5 mph - 0.02 pul Nieve Débil nevada
3:46 PM 35.6 ° F 28.0 ° F 33.8 ° F 93% 30.32 pul 7.0 mi NO 10.4 mph - 0.03 pul Nieve Débil nevada
3:56 PM 35.1 ° F 26.4 ° F 34.0 ° F 96% 30.35 pul 5.0 mi NO 12.7 mph - 0.04 pul   Nublado
4:27 PM 35.6 ° F 28.6 ° F 35.6 ° F 100% 30.32 pul 2.0 mi NO 9.2 mph - 0.02 pul   Nublado
4:47 PM 35.6 ° F 27.5 ° F 35.6 ° F 100% 30.33 pul 4.0 mi NO 11.5 mph - 0.02 pul Lluvia Lluvia débil
4:56 PM 37.0 ° F 29.8 ° F 35.1 ° F 93% 30.36 pul 2.5 mi NNO 10.4 mph - 0.03 pul Lluvia Lluvia débil
5:28 PM 37.4 ° F 29.8 ° F 35.6 ° F 93% 30.33 pul 3.0 mi Norte 11.5 mph 17.3 mph 0.03 pul Lluvia Lluvia débil
5:54 PM 37.4 ° F 29.8 ° F 35.6 ° F 93% 30.33 pul 3.0 mi Norte 11.5 mph - 0.05 pul Lluvia Lluvia débil
6:56 PM 37.9 ° F 29.6 ° F 36.0 ° F 93% 30.41 pul 6.0 mi NNO 13.8 mph - 0.07 pul Lluvia Lluvia débil
7:56 PM 37.9 ° F 30.0 ° F 36.0 ° F 93% 30.43 pul 6.0 mi Norte 12.7 mph - 0.03 pul Lluvia Lluvia débil
8:56 PM 37.9 ° F 30.0 ° F 36.0 ° F 93% 30.45 pul 8.0 mi NNO 12.7 mph - 0.02 pul Lluvia Lluvia débil
9:56 PM 37.9 ° F 30.5 ° F 36.0 ° F 93% 30.47 pul 7.0 mi NNO 11.5 mph - 0.02 pul Lluvia Lluvia débil
10:56 PM 35.1 ° F 27.4 ° F 33.1 ° F 92% 30.47 pul 8.0 mi NNO 10.4 mph - 0.02 pul Lluvia Lluvia débil
11:28 PM 33.8 ° F 26.4 ° F 32.0 ° F 93% 30.43 pul 4.0 mi NO 9.2 mph - 0.02 pul Nieve Débil nevada
11:56 PM 33.1 ° F 26.9 ° F 32.0 ° F 96% 30.47 pul 3.0 mi NO 6.9 mph - 0.03 pul Nieve Débil nevada